Theta_e
312 311 311 310 311 311 311 311 310 311 311 311 312 312 312 313 313 313 313 313 313 313 313 313 312 312 312 312 312 312 312 312 312 313 313 313 312 311 310 310 311 312 312 312 312 312 312 311 310 310 309 307 306 305 304 303 302 301 300 300 298 299 298 297 298 297 292 291 290 289 288 288 288 288 288 288 287 287 286 286 285 285 285 285 285
311 311 310 310 310 310 310 310 310 310 310 310 310 310 311 311 312 312 312 312 313 312 312 312 312 312 311 311 311 311 312 312 312 313 313 313 312 312 311 309 309 310 310 311 311 311 311 310 310 310 308 307 305 305 304 303 302 301 300 300 299 299 298 297 297 295 291 288 288 287 287 287 287 287 287 287 287 287 286 285 285 285 285 285 285
309 310 310 310 310 309 309 309 309 310 309 310 310 310 310 310 311 311 311 312 312 312 312 312 312 311 311 311 311 311 311 311 312 312 312 312 312 312 311 309 309 309 309 309 310 310 309 309 309 309 308 306 304 304 304 303 302 301 300 300 299 298 298 296 296 294 290 287 287 287 287 287 287 287 287 287 287 286 286 285 285 285 285 285 286
309 309 309 309 310 309 309 310 309 309 309 309 310 309 310 310 310 310 310 311 311 311 312 311 311 311 310 310 310 310 310 310 310 311 311 311 311 311 311 309 308 308 308 308 308 308 308 308 309 309 307 305 304 304 303 303 302 301 301 300 299 298 297 296 294 293 290 287 286 287 287 287 287 287 287 287 286 286 285 285 285 285 286 286 287
308 309 309 309 310 309 310 310 309 309 310 309 310 309 309 309 309 310 310 310 310 311 311 311 311 311 310 310 310 310 310 310 310 310 310 310 310 309 309 308 307 308 308 308 307 307 307 307 308 308 306 304 303 303 303 302 302 301 300 299 298 297 295 294 293 292 291 290 288 287 287 287 287 287 287 286 286 286 285 285 286 286 287 287 287
308 308 308 309 309 309 310 310 310 310 309 309 309 309 309 309 309 309 309 309 309 310 310 310 310 310 310 310 309 309 310 309 309 310 309 309 309 308 307 307 308 307 307 307 307 306 306 306 307 306 305 304 304 303 303 302 301 300 298 298 297 296 294 293 292 291 291 291 289 288 287 287 287 286 286 286 286 286 286 286 286 287 287 287 287
307 307 307 307 308 309 310 309 309 309 309 309 309 308 309 308 308 308 308 308 308 309 309 310 310 310 310 310 309 309 309 309 309 309 309 308 308 307 306 307 307 307 306 306 306 306 305 305 305 305 305 305 304 304 303 302 300 299 298 297 296 294 293 292 290 290 291 291 289 289 288 287 286 286 286 286 286 286 286 286 287 287 287 286 286
305 305 306 306 307 308 308 308 308 308 308 308 308 308 308 308 307 307 307 307 307 308 308 308 309 309 309 309 309 308 308 309 309 308 308 308 307 306 306 306 306 306 306 306 305 305 304 304 304 304 305 305 304 304 303 302 300 298 296 295 294 293 292 290 289 289 291 290 289 288 286 285 285 285 286 286 286 286 286 287 287 287 286 286 285
304 304 305 305 306 306 306 306 307 307 307 307 307 308 307 307 307 306 306 306 306 307 307 307 307 308 308 308 308 308 308 308 308 308 308 307 307 306 305 305 305 304 304 304 304 304 304 304 304 304 304 304 303 303 302 302 300 298 296 294 292 291 290 288 288 289 290 288 287 286 285 285 285 285 286 286 286 287 287 287 287 286 285 285 284
303 303 304 304 304 304 304 305 305 305 306 306 306 307 307 307 306 305 305 305 305 305 306 306 306 306 307 307 307 307 307 308 308 308 307 307 307 306 305 304 304 304 303 303 303 303 303 303 303 303 303 302 301 301 301 300 300 299 298 295 292 290 288 288 288 289 288 287 286 285 285 285 285 286 286 286 287 287 287 286 285 285 284 284 283
304 304 304 304 303 302 302 303 304 304 305 305 305 305 305 305 305 305 305 305 304 305 304 305 305 306 306 306 306 306 306 307 307 307 307 307 306 305 304 304 304 303 303 302 302 302 302 302 302 301 301 300 300 300 299 299 298 297 296 295 293 291 289 289 288 288 287 287 286 286 286 286 286 286 286 287 287 287 286 285 284 284 283 283 283
306 306 306 305 304 303 302 302 302 303 304 304 304 304 304 303 303 304 304 304 304 304 304 304 305 305 305 305 305 305 305 306 306 306 306 305 305 304 304 303 303 303 302 301 301 301 300 300 300 299 299 299 298 298 297 297 295 294 293 292 290 290 290 290 290 289 289 289 288 287 288 287 286 286 287 287 287 286 285 284 284 283 283 282 282
306 306 306 305 304 303 302 301 301 301 302 303 303 303 303 303 303 303 303 303 303 303 303 303 303 304 304 304 304 304 304 305 305 305 304 304 304 304 303 302 302 301 301 300 300 299 299 298 297 297 297 296 296 296 295 294 292 291 290 289 288 289 290 291 290 290 291 291 290 289 290 290 289 288 288 288 287 285 284 284 283 283 283 282 282
303 304 304 303 302 302 300 299 299 300 300 301 301 302 302 302 303 303 302 302 302 302 302 302 303 303 303 303 303 303 303 304 304 303 303 303 303 302 302 301 300 299 299 299 298 298 297 297 296 295 295 294 293 293 293 291 289 288 288 288 288 289 290 290 290 290 291 293 293 292 292 292 291 290 289 287 287 286 286 285 284 283 282 282 281
300 301 301 300 300 299 298 298 298 299 299 300 300 300 301 301 301 302 302 302 301 301 302 302 302 302 302 302 302 302 302 303 302 302 302 302 302 301 300 298 297 297 297 296 296 296 296 295 295 294 293 293 292 292 291 290 288 287 288 288 289 289 290 290 291 292 292 293 293 293 292 291 290 289 288 287 287 287 286 285 283 282 281 281 280
299 299 298 298 298 297 297 297 297 297 298 298 299 300 300 300 301 301 300 301 301 300 300 301 301 301 302 301 301 301 301 301 301 301 301 301 300 299 297 296 295 295 295 295 295 294 294 294 293 293 292 292 291 291 290 289 288 287 288 289 289 290 290 290 291 292 292 292 292 291 290 289 289 288 287 287 286 285 283 283 282 281 281 280 280
298 297 297 297 297 297 296 296 297 297 297 297 297 298 299 299 299 300 299 299 299 300 300 300 301 300 300 300 300 300 300 300 300 300 300 300 299 297 295 294 294 293 293 293 293 292 292 292 292 292 291 291 290 289 288 288 287 288 288 289 289 289 289 290 291 291 291 290 290 289 289 288 287 287 286 285 284 283 282 282 281 281 280 280 280
297 296 296 296 296 296 296 296 296 296 296 296 297 297 298 298 298 298 299 298 299 299 299 299 300 299 299 299 299 299 299 299 299 299 298 298 297 295 294 293 293 292 291 291 291 291 291 291 291 291 290 290 289 288 288 287 287 288 288 288 288 288 288 289 289 289 288 288 288 288 287 286 285 285 284 283 283 282 282 282 281 281 281 280 279
296 295 295 296 296 296 295 295 295 295 296 296 296 296 297 297 297 297 298 298 298 298 298 298 298 298 298 298 297 297 297 297 297 297 296 296 295 294 293 292 291 291 290 290 289 289 289 289 289 289 289 289 289 288 287 287 287 288 288 288 287 287 288 289 289 287 287 287 286 286 285 284 283 283 283 283 282 282 282 282 281 281 280 280 279
295 294 295 295 296 296 295 294 294 294 295 295 295 296 296 296 296 296 297 297 297 297 296 296 296 296 296 296 295 295 295 295 296 295 295 294 294 293 292 291 290 290 289 288 288 287 287 287 287 287 288 288 288 287 287 287 287 288 288 288 288 289 289 289 288 287 287 286 285 284 283 283 283 282 282 282 282 282 282 281 281 280 280 279 278
294 294 295 295 295 295 295 294 294 294 294 294 294 295 295 295 295 295 295 295 295 295 295 295 294 294 294 294 293 293 293 294 294 293 293 292 292 291 291 291 290 289 288 287 287 286 286 286 286 286 287 287 287 287 287 287 287 288 288 289 291 291 289 287 286 287 286 284 283 282 282 282 282 282 282 281 281 281 281 280 280 279 279 278 278
293 293 294 295 295 295 294 294 293 293 293 293 293 294 294 294 294 294 294 294 293 293 293 293 292 292 292 292 292 292 292 292 291 291 291 291 291 290 290 290 289 289 287 286 286 286 285 285 285 286 286 287 287 287 287 287 288 288 289 290 291 290 289 287 286 285 284 283 282 282 281 281 281 281 280 280 280 280 279 279 278 278 278 277 277
292 292 293 294 294 294 294 293 293 293 293 292 292 292 293 293 293 293 293 292 292 291 291 291 290 290 290 290 290 290 290 290 290 290 290 290 290 289 289 289 289 288 287 286 285 285 285 285 286 286 286 287 287 287 287 287 288 289 290 291 290 289 288 287 285 284 282 282 281 281 281 281 280 280 280 279 279 278 278 277 277 277 277 276 275
291 291 292 292 293 293 292 292 292 292 292 292 291 292 292 291 291 291 291 291 290 290 289 289 288 288 288 288 289 289 289 289 289 289 289 289 289 289 288 288 288 287 287 286 286 285 285 285 285 286 286 287 287 287 287 287 288 289 290 290 289 288 287 286 284 283 282 281 281 280 280 280 280 279 279 278 278 277 277 277 276 276 275 273 272
289 290 290 291 291 291 291 291 291 291 291 291 291 291 291 290 290 290 290 289 288 288 288 288 287 287 287 287 287 288 288 288 288 287 287 287 287 288 288 288 287 287 286 286 285 285 285 285 285 286 286 287 287 287 287 288 289 289 289 289 288 287 286 285 283 282 281 281 280 280 280 280 279 279 278 277 277 277 276 276 275 273 272 271 271
289 289 290 290 290 290 290 290 290 290 290 290 290 290 289 289 289 288 288 288 287 287 287 286 286 286 285 286 286 286 286 286 286 285 285 285 286 287 287 287 287 286 285 285 285 284 285 285 285 286 287 287 287 287 288 288 289 288 288 288 287 286 286 285 284 282 281 281 280 280 280 279 279 278 277 277 276 276 275 275 273 272 271 270 269
288 289 289 289 289 289 289 289 289 289 289 289 288 289 289 288 288 287 287 287 287 286 286 286 285 285 285 285 285 285 285 284 284 284 285 285 286 286 286 286 286 285 284 284 284 284 284 285 286 287 287 287 287 288 288 287 287 286 286 286 286 285 285 285 284 283 282 281 281 280 279 279 278 276 276 276 275 275 274 273 272 271 270 269 268
288 288 288 288 288 288 288 288 288 288 288 288 288 287 288 287 287 286 287 287 286 286 286 285 285 285 285 285 284 284 284 284 284 284 285 286 286 286 286 285 284 284 284 283 283 283 285 286 287 287 287 287 287 287 286 286 285 285 285 285 285 284 284 284 283 282 282 281 280 279 279 278 276 275 275 274 274 273 273 272 271 270 269 268 268
286 287 287 287 287 287 287 287 287 287 287 287 287 286 287 286 286 286 286 286 286 285 285 285 285 285 284 284 284 284 284 284 284 284 285 286 286 286 285 284 284 283 283 283 283 284 285 286 287 286 286 285 285 284 285 284 284 284 284 284 284 283 283 282 282 281 281 280 280 279 278 276 275 274 274 273 273 272 271 271 270 269 268 267 267
285 285 285 285 286 287 287 287 287 286 286 286 285 285 285 285 285 285 285 285 285 285 285 285 285 284 284 284 284 284 284 285 285 285 286 286 286 285 284 284 283 283 283 284 284 285 285 285 285 285 284 284 283 283 283 283 283 282 283 283 283 283 282 282 281 281 280 279 279 278 277 276 275 274 273 273 272 271 270 269 268 268 267 267 267
284 284 284 285 285 286 286 286 286 286 286 285 285 284 284 285 285 284 284 284 284 284 284 284 285 285 284 284 284 284 284 284 285 285 286 286 285 284 284 283 283 283 284 285 285 285 284 284 283 283 283 283 282 282 282 282 282 282 281 281 282 282 281 281 280 280 279 278 278 278 277 275 275 274 273 272 272 270 269 268 267 267 266 266 267
283 283 284 284 285 285 285 286 286 285 285 285 284 284 284 284 284 284 284 284 284 284 284 284 285 285 284 284 284 284 284 285 285 286 285 285 284 284 284 283 283 284 284 285 285 284 284 283 282 282 282 281 281 281 281 281 281 282 281 281 280 280 280 280 279 278 278 278 277 277 276 275 274 273 272 272 271 269 268 267 267 266 266 266 266
282 282 283 283 284 284 285 285 285 285 285 284 284 284 284 284 284 284 284 284 284 284 284 284 284 284 284 283 284 284 284 285 285 285 285 284 284 284 284 284 284 285 285 284 284 283 283 282 282 281 281 281 281 281 281 281 281 281 281 280 279 278 278 278 277 277 277 277 277 276 274 274 273 272 271 270 269 268 267 267 266 266 265 265 265
281 281 282 283 283 284 284 285 285 285 285 284 284 284 284 284 284 284 284 284 284 284 284 283 283 283 283 283 283 283 284 285 285 285 285 284 284 284 284 284 285 285 285 284 283 282 282 282 281 281 281 281 281 281 281 281 280 279 279 278 277 277 276 276 276 276 275 275 275 274 273 272 272 271 270 269 268 267 266 266 266 265 265 265 265
280 281 281 282 283 284 284 285 285 285 284 284 284 284 284 284 284 284 284 284 284 283 283 283 283 283 283 283 283 284 284 285 285 285 284 284 284 284 284 285 284 284 283 283 283 282 282 282 282 281 281 281 281 281 281 280 279 278 277 277 276 276 275 275 274 274 274 273 273 272 272 271 271 270 269 268 267 267 266 266 265 265 265 264 264
279 279 280 281 282 283 284 284 285 285 284 284 284 284 284 284 284 284 284 283 283 283 283 283 283 282 282 282 283 284 285 285 285 285 284 284 285 285 284 284 284 283 282 282 282 282 282 282 282 281 281 281 281 280 280 279 278 277 277 277 276 276 275 274 273 273 273 272 272 271 271 270 270 269 268 267 267 266 266 266 265 265 264 264 264
277 278 279 280 281 283 284 284 285 284 284 284 284 283 283 283 283 283 283 283 283 283 283 283 283 283 282 282 282 284 285 285 285 285 284 285 285 285 284 284 283 282 282 281 281 281 281 281 281 281 280 280 280 279 278 278 278 277 277 276 276 276 275 274 273 273 272 272 271 271 271 270 270 269 268 267 267 266 266 265 265 264 264 264 263
276 276 277 279 280 282 283 283 284 284 284 284 283 283 283 282 283 283 282 282 282 282 283 283 283 283 282 282 282 284 285 285 285 285 285 285 285 285 284 283 283 282 282 281 280 280 280 280 280 280 280 280 279 279 278 278 277 277 276 276 276 275 275 274 273 273 272 272 271 271 271 270 269 268 267 267 266 266 265 265 264 264 264 263 263
275 275 276 278 279 281 282 283 283 283 283 283 282 282 282 282 282 282 282 282 282 282 282 282 282 283 282 282 282 284 285 285 285 285 285 284 284 284 283 283 282 282 281 281 280 280 280 280 280 280 279 279 279 278 278 278 277 277 276 276 276 275 274 273 273 272 272 272 271 271 270 270 268 268 267 266 266 265 265 265 264 264 264 263 263
274 274 275 276 278 280 281 282 283 283 283 282 282 282 281 281 281 281 281 281 281 281 282 282 282 282 282 282 283 284 284 284 284 283 283 282 282 282 282 282 282 281 281 280 280 280 279 279 279 279 278 278 278 277 277 277 277 277 276 276 275 275 274 274 273 273 272 272 271 271 270 269 268 267 266 266 265 265 265 264 264 264 263 263 263
272 272 273 275 277 278 280 281 282 282 282 282 282 281 281 281 281 281 281 281 281 281 281 281 281 281 282 282 283 283 283 283 282 282 281 281 281 281 281 281 281 280 280 279 279 279 278 278 277 277 277 277 277 277 277 277 276 276 276 275 275 275 274 273 273 272 272 271 271 270 269 268 267 266 266 265 265 265 264 264 264 263 263 263 262
270 271 272 274 275 277 279 280 281 282 282 282 281 281 281 281 280 280 280 280 280 280 280 280 280 280 281 281 282 282 282 281 281 280 280 280 279 280 280 279 279 279 279 278 278 277 277 276 276 275 275 276 276 276 276 276 276 275 275 275 275 274 273 273 272 271 271 270 270 269 268 267 266 266 265 265 264 264 264 264 264 263 263 263 262
268 269 271 273 274 276 278 279 281 281 281 281 281 280 280 280 280 280 280 280 280 279 279 279 279 279 279 280 281 281 281 280 280 279 279 279 279 279 278 278 278 278 277 277 277 276 276 275 274 274 274 275 276 276 276 275 275 275 275 274 274 273 273 272 271 271 270 269 268 268 267 266 266 265 265 264 264 264 264 264 263 263 263 262 262
267 268 270 272 273 275 276 278 280 280 280 280 280 280 280 280 279 279 279 279 279 278 278 278 278 278 278 279 280 280 280 279 279 279 278 278 278 278 278 277 277 277 276 276 276 275 275 275 275 275 275 275 275 275 275 274 274 274 274 273 273 272 272 271 270 269 269 268 267 267 266 265 265 265 264 264 264 264 264 263 263 263 262 262 262
267 268 270 272 273 275 276 277 279 280 280 280 279 279 279 279 279 279 279 278 278 278 278 277 277 277 278 278 279 279 279 279 278 278 278 277 277 277 277 276 276 275 275 275 275 275 274 274 274 274 274 274 274 274 273 273 273 272 272 271 271 270 269 269 268 268 267 267 266 266 265 265 265 265 265 264 264 264 263 263 263 262 262 262 262
267 268 270 272 273 274 276 277 278 279 279 279 279 279 278 278 278 278 278 278 278 277 277 277 277 277 277 278 278 278 278 278 277 277 276 276 276 276 275 275 274 274 274 273 273 273 272 272 272 272 272 272 272 271 271 271 270 270 269 269 268 268 268 267 267 267 267 266 266 266 266 266 265 265 264 264 263 263 263 263 262 262 262 262 262
268 269 270 271 273 274 275 276 277 278 278 278 278 278 278 277 277 277 277 277 277 277 276 276 276 276 277 277 277 277 277 276 276 275 275 275 275 275 274 273 273 272 272 271 271 271 270 270 270 270 270 270 270 269 269 269 268 268 268 268 268 267 267 267 267 267 267 266 266 266 266 265 265 264 264 264 263 263 263 262 262 262 262 261 261
268 269 270 271 272 273 274 275 276 276 276 276 276 276 277 276 276 276 276 276 276 276 276 276 276 276 276 276 276 276 275 275 274 274 274 274 273 273 272 272 271 270 270 270 269 269 269 269 269 269 269 268 268 268 268 268 268 267 267 267 267 267 267 267 267 267 266 266 265 265 265 264 264 264 264 264 263 263 262 262 262 261 261 261 261
268 269 270 271 272 273 273 274 274 275 275 275 275 275 275 275 275 275 275 275 275 275 275 275 275 275 275 275 275 274 274 273 273 273 272 272 271 271 270 270 269 268 268 268 268 268 268 268 268 268 268 268 268 267 267 267 267 267 267 267 266 266 266 266 266 266 265 265 265 265 264 264 264 263 263 263 263 262 262 261 261 261 260 260 260
268 269 269 270 271 272 272 272 273 273 274 274 274 274 274 274 274 274 274 274 274 275 275 275 274 274 274 274 274 273 273 272 272 271 271 270 270 269 268 268 267 267 267 267 267 267 267 267 267 267 267 267 267 267 267 267 266 266 266 266 266 265 265 265 265 265 265 264 264 264 264 263 263 263 263 262 262 261 261 261 260 260 260 259 259
267 268 268 269 269 270 270 270 271 271 271 272 272 272 272 272 272 272 272 273 273 273 273 273 273 273 273 273 273 272 272 271 270 269 269 268 268 267 267 266 266 266 266 267 267 267 267 267 267 267 267 267 267 266 266 266 266 265 265 265 265 265 265 265 264 264 264 264 263 263 263 263 262 262 262 262 261 261 260 260 260 259 259 259 258
Wind_Speed
25 26 25 24 25 27 28 29 30 30 31 32 34 36 36 37 37 36 36 36 35 34 34 34 34 34 33 34 34 35 35 35 34 34 35 36 35 33 31 32 34 36 36 36 37 38 39 39 39 40 39 39 39 39 39 39 38 36 35 35 34 34 33 27 19 12 10 14 16 19 23 22 22 29 35 33 29 25 22 20 18 16 16 15 15
26 27 27 27 27 27 27 28 29 30 31 32 34 36 37 37 36 35 36 37 35 34 35 34 34 34 34 35 35 35 35 35 34 34 35 37 37 35 32 31 34 35 35 36 37 36 37 37 37 38 37 38 38 38 39 38 37 36 36 35 34 36 36 33 26 15 9 11 13 15 20 21 19 24 31 31 27 23 20 19 18 17 17 17 16
25 26 28 28 29 28 27 28 28 30 31 33 36 36 37 37 36 36 37 36 35 35 35 34 34 34 34 35 36 35 35 34 33 34 35 36 37 37 33 31 33 35 35 36 37 36 36 36 37 37 36 36 37 38 38 37 37 37 36 37 36 36 37 36 29 18 12 12 13 16 20 20 17 19 24 24 22 20 19 18 18 19 19 18 17
25 25 25 27 28 28 29 29 28 30 31 34 36 37 37 36 36 36 37 37 37 36 35 35 35 35 36 36 36 36 35 35 34 34 35 35 35 36 34 33 34 34 34 36 36 36 36 37 38 37 36 36 36 37 37 36 37 37 36 36 36 36 35 35 30 23 17 14 14 17 21 20 17 18 21 21 19 19 19 19 20 21 20 19 18
25 24 24 25 26 27 28 29 30 31 32 34 35 36 37 37 36 37 37 37 38 37 36 36 36 36 37 37 37 37 36 35 35 34 35 34 34 34 34 34 35 35 34 35 35 36 36 37 38 36 35 35 36 36 36 36 36 36 35 35 35 34 32 32 29 25 20 18 17 18 20 20 19 19 21 22 21 20 20 21 22 21 19 18 15
25 25 24 24 25 26 28 29 31 32 33 34 35 35 36 37 37 37 37 37 38 38 37 37 37 38 38 37 37 37 36 35 35 35 35 34 33 33 34 35 35 35 34 34 35 36 36 37 37 36 35 36 36 36 36 36 36 34 34 33 32 31 29 28 28 25 23 22 22 21 21 21 21 19 20 22 23 22 21 20 20 19 17 15 12
27 26 25 25 25 26 27 29 30 32 34 34 35 35 36 37 37 37 37 37 38 38 39 39 38 38 38 38 38 37 37 36 36 36 35 35 34 33 33 35 35 35 35 35 35 36 36 37 36 36 36 36 37 36 35 35 34 34 33 32 30 29 27 27 27 26 24 23 23 24 23 22 21 20 20 21 22 21 20 19 18 16 14 12 11
29 28 26 26 27 28 29 29 30 31 33 34 35 36 36 37 37 37 36 36 38 38 39 39 38 38 38 38 38 38 37 37 37 37 36 36 35 33 33 34 35 35 35 35 35 35 36 36 35 35 36 36 36 36 35 34 33 32 31 30 28 28 27 27 28 27 26 24 22 22 23 22 21 21 20 20 20 19 20 19 16 14 12 11 10
31 29 27 28 29 30 30 30 30 31 31 32 34 35 36 37 37 36 35 36 37 37 38 38 38 38 38 39 39 38 38 38 38 38 37 36 35 34 33 34 35 34 33 33 33 34 35 34 34 34 35 35 35 34 34 34 33 32 30 29 28 28 28 29 29 28 25 22 21 22 22 22 22 22 21 22 23 21 19 17 15 12 11 10 9
32 30 30 31 31 31 31 31 31 31 30 30 31 32 33 35 36 36 36 36 36 36 36 37 37 38 38 39 39 39 39 39 39 38 37 36 35 33 32 32 34 33 32 32 33 33 34 33 33 33 33 33 32 32 32 32 32 31 30 30 30 30 30 30 29 28 26 22 22 23 21 19 22 24 23 22 22 19 17 16 15 12 11 9 7
36 35 35 34 33 32 32 33 33 32 32 32 31 31 31 31 33 35 36 36 36 35 35 36 37 37 38 39 39 40 40 39 38 37 36 35 34 33 32 31 33 33 32 32 32 32 32 32 31 31 31 31 30 30 30 30 30 29 29 29 31 33 34 31 28 27 26 22 22 23 22 20 22 25 22 20 19 17 16 16 15 13 11 8 5
39 39 38 38 37 36 35 35 34 34 33 33 33 32 31 31 31 33 34 34 34 34 34 36 37 37 37 38 39 40 40 39 37 36 35 34 33 34 32 31 32 32 32 31 31 31 30 30 30 29 29 30 29 29 28 27 27 27 27 27 29 32 33 33 31 29 27 24 23 23 23 22 22 24 22 20 19 18 15 15 14 12 10 8 7
37 38 38 38 38 38 37 36 36 35 34 34 34 33 32 32 32 32 32 32 32 32 33 35 36 36 36 38 39 39 39 37 36 35 34 33 32 33 32 32 32 32 31 30 29 29 28 28 27 27 27 27 26 26 26 25 24 24 24 26 27 28 28 29 30 30 29 26 25 24 23 21 21 23 22 21 20 19 17 15 13 11 10 10 10
34 35 36 36 36 37 37 36 36 36 35 34 34 33 32 32 33 32 32 31 31 32 33 34 34 35 36 37 37 38 38 36 35 34 33 31 31 31 32 32 32 31 30 29 28 27 27 26 26 25 25 24 24 24 23 24 23 23 23 25 26 25 25 24 25 25 25 24 22 21 21 20 18 19 20 20 19 18 17 15 14 12 12 11 8
33 34 35 35 35 35 36 37 37 37 36 35 33 32 32 32 32 32 31 31 32 32 32 33 34 34 34 35 36 37 36 35 33 32 31 30 30 30 31 31 30 29 28 27 26 25 25 25 24 24 23 22 22 23 23 25 25 25 26 26 26 24 23 23 22 21 19 19 17 15 16 17 15 16 19 18 16 15 13 12 12 11 10 10 8
33 34 35 36 36 35 35 36 37 37 36 34 33 33 32 32 31 30 30 31 31 31 32 32 33 33 33 33 34 36 35 33 31 30 29 29 29 29 29 28 27 27 26 25 25 24 23 23 22 22 22 22 22 23 25 27 28 28 27 26 24 22 21 20 20 17 15 16 16 14 15 17 16 16 17 17 15 14 12 11 11 11 11 11 9
33 34 35 36 36 37 36 35 36 36 35 34 34 33 32 31 30 29 29 31 31 31 32 32 32 33 32 32 33 34 34 31 29 28 28 28 28 28 27 26 25 25 24 23 22 21 21 22 22 22 22 22 22 24 27 29 30 30 29 26 25 22 20 18 17 15 14 16 16 15 15 17 16 15 15 14 13 13 14 15 15 15 14 11 8
33 34 36 37 37 37 35 34 34 34 34 33 33 34 33 32 30 28 27 29 30 31 31 31 32 31 32 32 32 32 32 29 27 27 27 27 26 25 24 23 23 22 21 21 20 20 21 21 21 22 22 21 23 26 29 31 32 32 31 29 26 24 22 20 18 17 16 15 15 15 15 14 14 13 12 12 12 13 16 16 17 17 15 11 8
33 35 37 38 38 37 36 34 33 32 33 33 32 32 33 32 30 29 28 28 29 30 29 29 30 30 30 30 29 29 28 26 25 25 25 25 24 23 22 22 22 21 20 20 19 18 19 18 19 20 20 21 24 27 31 34 34 33 32 30 27 25 23 23 22 21 20 18 17 16 15 15 15 15 14 14 14 15 15 15 15 15 14 12 10
35 36 38 38 38 37 35 34 33 32 32 32 32 31 31 31 30 29 28 28 28 28 28 27 28 28 27 27 26 26 25 24 24 24 24 23 22 21 21 22 22 21 20 19 18 17 17 18 19 19 20 22 24 26 30 35 35 34 33 32 30 28 25 24 24 23 22 21 19 19 18 18 17 18 17 16 16 15 15 14 13 13 12 11 12
35 36 37 38 38 37 35 34 34 33 33 32 32 31 29 28 28 28 28 28 27 27 27 26 26 26 25 24 24 23 23 23 23 23 22 20 19 20 21 22 23 22 20 19 19 18 19 20 21 21 21 22 24 25 29 34 35 34 34 33 31 29 27 26 24 22 21 21 22 21 21 20 19 18 17 16 15 14 14 13 12 12 12 12 13
34 35 36 37 37 36 34 33 33 33 33 32 32 33 30 27 26 26 26 26 26 26 25 24 23 23 22 21 21 22 21 22 21 20 19 18 18 20 22 23 24 22 20 19 19 20 21 21 22 22 21 22 25 27 30 34 34 33 33 32 29 28 28 26 24 22 22 23 24 23 22 21 19 18 16 16 15 14 13 12 11 11 11 12 13
33 34 35 36 35 34 33 32 31 32 33 32 32 32 31 27 25 23 23 24 24 25 24 22 21 20 20 19 20 20 20 19 19 18 17 17 17 19 21 23 23 22 22 21 21 21 21 21 21 21 21 23 26 29 31 33 33 32 32 30 28 27 26 25 24 24 25 25 24 23 22 21 20 18 17 17 15 14 13 11 11 11 12 13 13
33 34 34 34 33 32 31 31 31 30 31 30 30 31 30 27 25 23 21 21 22 22 22 20 19 18 18 18 19 19 19 18 18 16 16 16 16 17 19 20 20 20 20 20 20 20 21 22 22 22 23 25 27 29 31 32 32 32 30 27 25 25 25 25 26 27 26 25 24 23 22 21 20 20 19 17 16 14 13 11 11 12 12 12 11
33 34 34 33 32 31 30 30 30 29 29 28 28 29 29 27 25 23 21 20 20 20 20 19 18 18 18 18 18 19 18 17 16 15 14 14 14 15 15 16 17 18 18 19 20 20 21 22 22 23 26 28 28 29 30 32 32 29 26 24 23 24 25 26 27 28 27 26 25 24 23 22 21 20 19 18 16 15 13 12 12 11 11 11 10
34 34 34 33 32 30 29 30 29 28 27 26 26 26 26 25 25 23 21 19 19 19 18 17 16 16 16 17 18 18 17 16 16 15 14 14 15 15 15 15 16 17 18 18 19 20 22 23 24 27 30 30 29 30 31 30 29 26 24 23 24 25 26 26 28 29 28 27 26 24 23 22 21 20 19 18 16 15 13 13 12 11 11 11 10
33 34 34 33 32 30 29 29 29 28 27 26 25 24 23 23 24 23 21 19 19 18 17 16 16 16 17 17 17 16 16 16 16 16 16 17 18 17 17 17 18 18 18 19 20 21 23 25 27 30 31 29 29 30 30 28 26 25 24 24 24 25 25 25 26 27 27 27 26 24 22 22 22 21 19 18 16 15 14 13 12 12 12 12 12
32 34 34 32 32 30 28 28 28 27 27 25 24 23 22 21 21 22 21 20 19 18 17 17 18 18 17 17 15 14 14 15 16 17 19 20 19 19 19 20 20 20 20 20 21 23 25 27 29 30 30 29 28 28 28 27 26 26 25 25 24 24 23 23 24 25 25 25 24 23 22 23 22 21 20 18 16 15 14 13 13 13 13 13 14
32 33 33 31 30 29 27 26 25 25 25 24 23 22 21 19 19 21 21 20 18 18 17 18 18 18 17 15 14 13 14 15 17 17 19 20 20 21 21 22 21 21 21 22 24 25 26 28 29 30 30 29 28 28 29 28 28 26 25 25 24 24 24 24 25 25 24 24 23 23 23 24 23 21 19 17 16 14 13 14 14 14 14 15 16
31 32 31 30 29 28 26 25 23 22 22 22 21 21 19 17 17 18 18 18 18 18 17 17 17 16 16 16 14 13 13 14 14 16 17 18 19 20 21 21 21 21 21 23 25 26 25 26 27 29 30 30 29 30 30 30 29 27 26 25 24 24 24 25 25 24 24 23 23 23 25 25 23 22 20 18 16 14 14 14 14 14 15 15 16
30 31 30 29 29 28 26 25 23 21 20 19 18 18 18 16 15 14 14 14 15 16 16 16 15 14 14 15 15 13 12 12 13 16 17 18 18 19 20 20 21 21 24 27 27 24 23 24 24 25 27 28 28 29 29 29 29 27 26 24 24 24 25 25 25 24 24 23 23 23 24 24 23 21 19 17 15 14 15 15 15 15 15 15 15
28 31 31 31 30 29 27 26 24 21 20 18 17 16 15 15 14 14 13 12 13 13 13 13 13 11 11 13 13 12 11 11 14 16 17 17 18 18 19 20 20 22 26 29 26 22 22 22 21 22 24 23 24 26 28 27 27 26 25 25 24 25 25 25 25 24 24 23 23 23 23 22 20 18 16 15 15 15 16 17 16 15 15 14 14
29 30 31 31 30 29 28 26 24 22 21 19 18 16 16 15 14 14 13 12 11 11 10 10 9 8 8 10 12 11 10 10 13 15 15 16 16 17 17 18 19 21 26 27 22 20 20 20 19 21 22 22 23 25 26 25 25 24 24 25 25 25 24 24 23 23 22 22 22 22 22 20 17 16 14 14 15 16 16 17 16 16 16 15 14
30 31 31 30 29 29 28 26 24 24 22 20 19 18 17 16 15 13 12 10 9 8 7 6 6 5 6 9 10 10 10 12 13 14 14 14 15 15 16 17 18 21 25 26 23 21 21 20 20 21 22 22 23 24 24 23 23 23 23 23 24 24 23 22 21 21 21 20 20 19 19 17 15 14 14 15 16 16 16 17 17 16 16 16 15
31 32 31 30 28 28 27 26 25 24 23 22 21 20 19 18 15 13 12 10 7 6 4 4 4 4 6 8 9 9 11 13 13 13 13 13 14 15 17 18 18 18 20 22 22 22 23 23 23 23 22 22 22 23 23 23 23 23 23 23 23 23 22 21 21 20 19 18 18 17 16 14 12 12 14 15 16 17 18 18 18 18 17 16 15
30 30 30 29 27 27 27 26 25 25 24 23 22 21 20 18 16 14 12 9 7 5 4 4 4 5 6 8 9 10 13 14 13 13 14 14 15 17 18 17 16 16 16 17 18 20 22 22 23 23 22 21 21 22 22 22 22 23 23 23 23 23 22 21 20 19 17 17 16 15 13 12 12 12 14 15 16 17 18 18 19 19 18 16 15
29 29 29 28 27 26 26 26 26 25 25 24 23 21 20 18 16 14 12 10 9 7 5 5 6 6 7 8 10 12 14 14 13 13 13 14 16 19 19 17 15 15 16 16 15 16 18 18 18 19 20 19 19 19 19 20 21 21 22 21 21 20 20 20 18 17 16 15 14 13 12 11 11 13 14 16 17 17 18 18 18 18 17 16 15
29 29 28 28 28 28 27 26 25 24 24 23 22 21 20 18 17 15 13 12 11 10 9 8 9 10 10 10 12 14 15 15 14 14 15 15 16 17 17 16 15 16 17 15 13 13 13 13 13 14 15 16 17 18 18 19 20 21 21 20 19 18 18 18 17 15 14 13 12 11 11 11 12 13 15 17 18 18 18 18 18 17 17 16 16
31 31 29 27 27 28 27 26 25 23 22 22 21 20 19 18 16 15 13 12 12 11 11 10 10 11 12 12 14 16 16 16 16 16 16 15 14 14 14 14 13 14 15 14 12 10 10 9 10 11 12 14 15 16 17 17 19 19 19 19 19 19 18 18 16 15 14 12 11 11 11 11 13 14 16 17 18 18 18 18 17 17 17 17 17
35 34 31 26 24 26 26 25 25 23 22 21 21 20 20 18 17 15 14 13 13 13 13 13 13 13 14 15 17 17 16 14 14 14 14 13 12 12 13 13 12 12 12 12 11 10 9 9 10 10 11 13 13 14 15 16 17 18 18 18 19 18 17 16 15 14 13 12 11 11 12 13 14 15 17 18 18 18 17 17 16 16 17 17 17
35 33 29 24 23 24 25 24 24 23 22 22 21 20 20 19 18 16 15 15 14 14 14 14 13 13 14 15 17 18 17 15 14 14 14 13 12 12 12 11 11 11 11 10 10 9 9 9 10 11 12 12 13 14 14 15 16 16 17 17 17 16 15 15 15 14 12 11 11 11 13 14 15 16 17 17 17 17 16 16 16 16 16 16 16
33 32 28 24 23 23 23 23 23 22 21 21 21 21 20 19 18 17 16 15 15 14 14 14 13 12 12 13 15 16 16 15 15 14 13 13 12 11 11 10 10 9 9 9 9 9 9 10 12 12 13 13 13 13 13 13 14 14 15 15 15 14 14 14 14 13 12 11 12 12 13 14 15 15 15 15 16 16 16 16 17 17 17 17 17
33 31 28 24 23 24 23 23 21 20 20 20 20 20 19 18 18 17 16 15 16 16 16 15 14 13 13 13 13 13 14 14 15 14 13 13 12 11 11 10 9 9 9 9 9 9 9 10 11 12 11 11 10 10 10 10 10 11 12 13 13 13 13 14 13 13 12 12 12 13 13 14 14 14 14 14 15 15 16 17 18 18 18 18 17
31 29 26 24 23 24 23 22 21 19 19 18 18 18 18 18 18 18 17 17 17 17 16 16 15 15 14 13 13 13 14 14 14 14 13 13 12 11 10 10 9 9 9 10 10 10 10 10 10 11 11 10 10 9 9 9 9 10 11 12 13 14 14 13 12 12 11 12 12 12 12 12 12 13 13 14 15 16 18 19 19 19 19 18 18
30 28 25 23 22 22 22 21 20 19 18 18 17 17 18 19 19 19 19 19 18 18 18 17 17 16 15 14 13 13 14 15 14 14 13 13 12 11 10 9 9 10 10 10 11 11 10 10 10 10 10 10 10 10 10 11 11 11 12 12 12 12 11 10 10 10 11 11 11 12 12 12 13 14 14 15 16 18 19 19 20 19 19 19 19
28 26 24 22 22 21 21 20 19 19 19 19 19 19 19 19 20 20 21 21 21 21 20 19 18 17 16 15 14 14 14 15 15 14 14 13 12 10 10 9 10 10 10 10 10 10 9 9 9 9 9 10 10 10 11 11 11 11 11 11 10 10 10 10 10 10 11 11 12 12 13 14 15 16 16 16 16 17 18 19 19 19 20 20 20
25 24 23 22 21 21 20 19 18 18 18 19 19 20 20 20 20 20 21 22 22 22 21 20 19 18 17 16 16 15 15 15 15 14 12 12 11 11 10 10 10 10 10 10 10 10 10 10 10 10 10 10 10 10 10 10 10 10 10 9 9 9 9 9 10 10 11 12 13 14 14 15 15 15 16 16 16 18 18 19 19 20 19 19 20
23 22 22 22 20 20 19 17 16 17 17 17 18 18 19 20 20 21 22 23 23 23 22 21 20 19 18 18 17 16 15 14 13 12 12 11 11 11 12 11 11 12 12 12 12 12 11 11 10 10 10 9 9 8 8 8 8 8 8 8 8 9 9 10 11 11 12 13 14 14 14 15 15 15 16 16 17 18 18 18 19 19 18 19 19
21 20 20 19 18 17 16 15 15 16 16 16 17 18 18 19 20 21 22 23 23 23 22 22 21 20 20 19 17 16 14 13 12 12 12 12 12 13 13 12 12 12 12 12 11 11 10 9 9 8 7 7 6 6 6 7 7 7 8 8 9 10 11 11 12 12 13 13 13 14 14 15 15 15 16 16 17 18 18 18 18 18 17 18 19
18 17 16 15 14 13 13 13 13 14 15 16 17 17 18 18 18 20 21 22 22 22 21 21 21 20 19 18 17 15 13 12 11 12 13 14 14 13 13 13 12 11 11 10 9 8 7 6 6 5 5 5 5 6 7 7 8 8 9 9 10 11 11 11 12 12 13 13 13 13 14 15 15 16 16 17 17 18 18 18 18 18 18 18 19
14 12 10 9 8 8 8 8 9 11 12 14 15 16 17 17 17 18 19 19 20 20 20 20 19 18 16 16 15 14 12 11 12 13 14 14 14 13 13 12 11 10 9 8 7 6 5 5 5 5 6 6 7 7 8 8 8 9 9 10 11 11 12 12 12 13 13 13 14 14 15 15 16 16 17 17 18 18 18 18 18 18 18 19 19
Wind_Direction
320 314 309 302 296 291 286 282 277 275 273 271 270 271 271 270 270 271 271 271 271 271 271 271 270 270 268 267 265 263 261 260 259 258 258 257 255 255 259 259 257 255 253 250 249 247 245 242 242 243 243 242 240 238 236 234 232 230 230 229 227 229 228 225 229 239 224 218 224 221 215 212 216 217 213 211 213 214 217 219 218 215 214 216 218
323 320 316 310 303 300 295 289 283 278 275 273 272 272 271 271 270 270 270 271 271 270 271 272 271 270 268 267 265 263 261 259 258 257 256 257 254 253 257 262 262 259 257 255 253 251 248 245 246 247 245 243 240 238 236 234 233 231 229 228 228 230 229 226 227 227 207 200 206 207 205 204 209 212 209 209 210 209 210 210 208 209 212 217 219
324 321 318 314 310 305 300 296 290 283 278 276 274 273 273 273 271 270 271 271 271 270 271 271 270 269 268 267 264 262 261 259 258 256 255 256 255 253 255 262 264 261 258 257 255 253 251 249 249 250 247 243 240 238 237 235 234 232 231 230 229 230 230 226 224 216 189 180 191 194 193 196 203 203 201 204 204 200 203 204 206 211 215 220 222
332 327 322 318 314 310 305 302 295 288 285 282 279 277 276 275 273 272 272 271 270 269 269 268 267 266 265 264 263 261 260 259 257 257 256 255 255 255 257 262 265 263 260 259 257 255 253 251 252 251 246 241 240 238 237 235 235 233 232 232 229 229 229 225 220 212 191 174 180 189 188 187 189 186 186 191 193 195 199 204 209 216 220 224 225
338 334 327 321 317 314 310 306 300 295 293 290 287 284 280 277 276 274 272 271 269 268 267 265 263 261 261 261 261 260 260 259 257 257 257 256 255 256 259 263 264 263 262 261 258 256 254 252 252 250 245 241 239 238 237 235 234 232 231 230 228 227 226 222 216 211 199 181 174 179 183 182 179 180 185 188 188 192 199 207 215 220 224 227 227
342 337 331 324 319 316 313 310 306 303 300 297 294 291 286 282 279 277 274 272 270 268 266 264 261 259 259 259 259 259 259 257 257 257 257 256 255 258 261 262 262 262 262 262 260 257 254 253 252 250 245 242 241 240 239 236 233 232 229 228 226 223 220 215 208 205 199 187 178 178 182 183 180 179 186 192 193 195 201 210 218 223 225 225 225
343 338 333 325 319 317 317 315 312 308 305 302 299 294 291 287 283 281 278 273 271 268 265 263 261 259 258 257 257 257 256 255 255 256 256 254 254 258 261 260 259 260 260 261 260 257 254 253 252 250 247 246 245 242 240 237 234 232 229 227 223 217 212 206 199 194 189 182 181 183 184 185 183 179 183 191 197 202 207 211 215 219 220 220 220
341 337 332 325 320 319 319 316 313 310 307 304 301 298 295 291 287 285 281 276 272 270 267 265 263 261 259 257 256 255 253 253 253 253 253 251 251 255 258 257 257 258 259 260 259 256 254 253 252 251 251 250 249 246 243 240 234 229 227 225 219 210 202 195 189 185 182 179 181 183 180 180 182 181 181 188 195 204 210 211 210 210 211 214 221
339 336 331 326 323 322 320 317 314 311 307 304 302 300 298 295 291 287 283 280 277 273 269 266 263 261 259 258 256 253 250 250 251 251 251 250 249 251 255 257 257 258 258 258 257 255 254 253 253 253 254 253 252 249 247 243 236 230 225 219 210 201 193 187 183 180 178 176 175 175 174 174 177 178 182 191 198 203 205 203 202 202 205 215 228
338 335 330 327 326 325 322 320 318 314 309 305 302 300 298 295 292 289 286 283 279 275 271 266 262 260 259 258 256 253 251 251 252 252 251 250 249 250 255 258 258 258 257 256 256 255 254 254 254 254 254 253 252 249 246 242 239 236 230 219 206 194 185 180 178 178 175 171 169 170 169 171 180 185 190 195 197 197 195 192 191 194 202 219 235
340 336 331 329 329 329 328 326 323 318 314 311 307 304 300 295 290 288 286 283 280 276 271 265 262 260 258 257 255 254 253 253 253 253 252 252 251 251 254 258 258 257 257 255 255 256 256 255 255 254 252 250 248 246 243 240 236 233 230 222 209 198 188 179 175 173 171 167 168 172 173 178 187 192 193 192 189 189 189 186 186 191 198 213 232
342 338 335 332 330 331 331 330 326 322 319 317 313 310 305 299 293 288 285 283 281 276 270 266 264 261 258 256 255 254 254 255 255 254 253 252 253 252 254 257 257 256 255 255 255 255 256 256 254 252 250 247 244 240 237 234 230 225 220 212 203 197 194 188 181 176 174 172 172 176 179 181 185 190 191 188 183 183 187 187 188 195 200 212 228
340 339 337 334 332 331 331 330 327 325 324 321 317 312 306 301 297 292 289 286 281 275 270 267 264 261 258 255 255 255 255 255 255 255 254 254 254 254 254 255 256 254 254 255 255 254 254 254 252 249 246 242 238 234 228 222 217 212 206 198 193 191 192 191 187 185 187 184 179 180 185 187 189 193 192 187 182 179 183 188 193 203 212 221 228
337 336 336 335 333 332 331 329 326 325 324 322 318 312 306 302 298 294 291 286 280 274 271 268 264 261 258 256 256 256 256 256 256 255 255 255 254 253 254 255 255 253 253 254 254 255 254 252 249 245 241 235 229 224 217 207 198 192 187 184 184 184 185 187 189 191 193 192 188 190 195 198 200 196 188 187 188 188 189 193 200 209 216 219 220
335 335 334 333 333 332 330 328 325 323 322 321 317 311 307 302 299 295 291 284 279 275 272 268 265 262 259 258 257 257 256 257 256 255 255 255 254 252 252 253 252 252 252 253 255 255 254 251 246 241 236 231 224 216 207 196 186 179 175 173 173 176 181 188 194 195 194 195 197 200 200 199 197 191 187 189 192 194 197 203 208 210 209 208 209
334 334 332 331 331 331 329 326 324 322 321 318 313 309 306 302 299 295 289 283 278 273 269 267 264 262 260 258 256 256 257 256 255 255 255 253 252 251 251 250 250 250 251 252 253 252 249 246 242 237 233 227 219 210 201 190 179 171 166 164 166 171 177 185 190 191 189 190 194 196 192 189 188 187 188 190 190 192 194 195 198 198 195 201 210
333 332 329 329 328 328 328 326 323 322 320 316 311 308 305 301 299 295 287 281 277 272 269 267 264 262 260 257 254 254 256 255 254 254 252 250 250 249 247 246 246 247 248 248 248 246 244 242 237 232 229 222 211 201 193 183 172 166 162 160 163 164 161 164 171 177 182 185 186 185 182 182 184 185 187 191 193 194 191 188 192 195 195 200 211
331 328 327 326 325 325 325 324 322 321 319 316 312 309 306 302 299 294 286 281 277 274 272 269 265 262 259 256 255 255 255 256 254 252 250 248 247 246 243 242 241 240 241 241 242 242 240 238 234 228 222 214 205 196 187 177 170 167 165 161 157 153 150 156 162 166 172 176 175 173 173 175 177 176 179 187 192 196 197 197 197 197 199 204 207
327 325 324 324 323 323 323 322 321 319 317 315 313 310 307 304 300 294 286 281 278 275 272 269 265 262 259 257 256 255 255 256 253 250 249 246 246 244 240 235 231 231 232 231 231 231 228 227 226 223 218 210 201 192 185 177 172 170 167 160 154 153 159 167 170 167 167 168 166 163 163 167 170 172 175 181 186 194 203 208 208 206 208 210 206
324 323 322 322 322 322 322 321 319 317 315 314 313 310 307 304 300 294 287 282 278 274 269 265 263 262 259 257 255 253 252 252 250 249 248 246 244 239 233 227 224 223 223 220 216 214 213 214 214 213 211 205 196 188 183 180 176 173 171 167 164 166 170 173 175 173 170 165 162 162 164 169 176 179 181 185 189 196 204 211 215 218 220 218 214
322 322 321 321 321 321 321 320 318 316 315 314 311 309 307 304 299 294 289 283 277 271 266 261 259 259 256 253 252 250 249 249 248 247 246 244 241 233 229 227 223 219 215 211 209 206 204 203 202 203 205 201 190 183 181 182 181 178 177 177 176 177 176 174 173 173 168 163 163 166 170 174 179 184 188 192 196 202 206 209 213 219 225 227 226
321 320 319 319 319 320 320 319 317 315 315 314 311 308 307 304 298 292 287 281 274 269 265 259 255 254 251 246 245 245 246 246 245 245 245 244 239 232 228 226 223 218 210 205 204 202 200 200 199 200 200 191 182 180 182 184 184 181 180 181 181 180 178 173 170 168 166 165 168 171 174 177 180 185 191 194 197 202 206 209 214 221 230 236 236
319 317 316 317 317 318 317 316 315 314 313 313 309 306 305 301 296 290 283 277 271 266 261 256 251 247 243 240 239 239 240 240 241 242 242 239 233 228 226 225 223 219 213 205 200 197 197 198 198 196 189 180 178 179 181 182 182 180 180 180 178 176 174 170 168 167 167 168 171 174 177 181 183 186 191 194 196 200 205 213 222 230 237 241 241
316 313 314 314 314 316 315 313 312 311 311 310 306 303 302 299 293 286 279 271 266 262 258 252 245 241 238 235 235 235 234 235 235 234 231 227 221 218 221 223 222 219 216 211 206 200 197 196 194 187 180 177 178 178 179 181 180 177 176 175 173 171 171 170 169 169 169 171 174 177 181 186 190 192 195 197 198 201 208 218 229 237 241 241 242
313 312 312 311 312 314 312 310 309 308 307 305 302 300 299 296 290 284 277 267 259 257 255 250 242 240 239 236 234 233 231 229 225 220 216 214 210 208 216 223 222 218 214 210 206 201 196 192 185 177 176 176 175 174 177 179 176 173 172 172 170 171 172 172 171 172 174 176 179 182 185 190 195 199 199 199 200 204 211 220 228 234 236 234 236
312 311 310 310 311 312 309 307 307 307 305 301 298 296 294 290 286 282 275 265 257 253 252 250 246 245 244 242 239 235 229 223 217 211 205 201 199 201 209 215 216 214 212 206 200 195 190 183 176 173 174 173 170 170 171 171 170 169 171 172 172 174 176 177 178 179 181 182 184 187 189 191 195 199 198 200 205 209 216 222 225 226 227 229 229
311 309 308 309 309 309 307 306 306 306 305 301 296 293 291 286 281 277 271 263 256 251 247 246 244 244 245 244 242 237 228 220 212 204 197 194 194 197 198 198 198 199 199 195 188 183 179 173 170 170 169 166 165 167 166 162 162 165 170 174 176 179 182 185 187 188 188 188 189 190 191 192 194 195 197 202 207 212 219 225 227 225 225 226 225
309 306 306 306 306 306 305 304 304 304 303 300 295 290 288 283 277 272 268 262 256 252 248 245 242 242 244 243 239 234 228 221 211 202 195 191 189 188 186 185 186 187 186 182 176 172 170 167 165 163 159 158 159 159 157 157 160 165 172 177 179 181 185 189 191 193 193 193 191 189 189 191 193 195 199 204 208 214 221 226 228 228 225 222 221
308 304 304 303 303 304 303 300 300 300 299 298 294 289 285 281 276 273 269 263 257 255 256 255 253 251 250 246 238 231 230 225 215 204 196 190 187 184 181 180 181 180 178 174 167 165 166 164 159 156 154 154 153 153 154 158 164 170 176 178 179 183 187 190 192 194 195 195 192 189 189 191 193 196 200 204 209 216 224 228 228 228 225 221 222
306 302 301 301 301 303 301 298 297 295 294 294 292 289 285 280 276 275 272 267 263 261 262 265 265 262 258 251 241 237 240 235 218 204 196 192 188 185 182 181 178 174 171 167 164 163 163 159 156 156 157 157 155 156 160 164 168 173 177 179 182 185 188 192 197 198 197 196 194 192 192 193 195 198 202 207 211 217 223 227 226 226 226 225 225
304 301 300 299 300 301 298 295 293 289 286 285 285 284 283 280 276 275 273 270 269 266 264 265 266 266 263 256 245 243 248 239 218 205 198 193 189 186 184 182 178 172 168 165 164 164 162 159 158 160 162 161 160 162 166 170 172 174 176 179 185 189 192 197 200 200 197 194 193 195 197 199 200 203 206 212 217 220 223 224 223 225 228 231 233
300 298 298 298 298 298 294 290 287 282 278 276 272 270 272 271 270 269 265 261 261 262 263 265 265 265 262 253 244 241 243 230 214 206 199 193 190 187 185 183 178 172 170 167 164 165 165 163 163 164 164 164 165 168 172 175 177 178 181 183 188 193 198 200 199 198 196 193 192 196 199 201 204 207 212 219 222 223 224 224 224 226 229 233 237
300 297 296 296 296 295 291 286 281 275 271 268 262 258 257 257 258 261 260 256 254 253 255 261 263 263 255 242 233 232 229 216 207 204 199 194 190 185 181 178 173 171 171 168 164 166 169 169 170 171 170 171 173 176 179 182 183 186 189 190 190 193 196 197 196 195 196 195 196 197 198 201 205 209 216 223 225 225 226 227 227 228 230 233 235
304 299 296 295 293 291 288 283 278 273 268 263 257 252 249 249 252 256 256 252 246 243 243 245 250 251 238 225 221 219 212 202 197 197 196 193 188 179 171 169 170 173 175 174 171 171 172 174 177 178 178 180 182 184 185 188 190 191 192 192 192 191 191 192 193 194 193 193 195 197 198 202 209 214 219 223 224 225 228 229 229 229 230 232 233
308 303 299 295 290 286 283 280 275 271 265 259 255 250 247 245 246 245 244 240 235 233 232 227 227 224 213 209 207 203 196 189 184 186 190 189 181 172 166 164 166 171 176 178 178 177 178 181 184 185 186 188 190 192 193 195 196 195 194 193 192 189 187 189 190 191 191 192 194 197 200 206 215 223 226 225 225 226 228 229 231 233 233 234 236
308 304 301 296 290 285 280 276 271 267 263 259 255 251 246 242 239 236 234 230 223 216 209 208 214 216 212 206 195 186 183 180 174 176 183 182 176 171 168 165 165 169 176 181 183 183 184 187 188 190 192 194 197 200 201 200 199 198 197 196 193 189 189 190 190 190 191 194 197 200 204 211 221 227 228 229 231 233 234 234 235 235 236 236 238
307 303 299 296 292 287 281 275 269 264 261 258 253 249 244 238 233 229 224 217 208 197 185 186 192 195 201 202 191 180 177 175 170 171 175 175 175 175 173 171 171 175 179 183 186 187 188 190 193 196 199 202 204 206 207 205 203 201 199 197 195 194 194 195 195 195 196 198 202 207 212 220 228 231 231 232 234 234 236 237 237 236 237 237 237
306 302 297 293 291 287 282 276 270 264 258 252 247 242 238 233 227 222 217 210 201 189 180 180 182 184 188 190 185 179 174 171 169 170 173 177 180 181 179 177 177 180 183 186 189 190 190 193 200 206 209 212 214 213 210 208 204 201 197 195 195 197 198 198 198 200 202 205 209 214 221 229 234 235 235 236 236 236 237 238 237 237 238 236 235
308 305 301 294 288 285 280 274 269 262 253 246 241 236 232 227 220 215 210 203 194 185 178 175 176 178 178 179 179 178 175 171 171 172 176 181 186 186 184 183 182 183 188 191 194 197 200 202 208 214 215 216 216 213 209 205 200 197 197 196 195 196 198 200 202 204 208 213 217 221 228 234 236 236 237 237 237 238 238 240 241 242 242 241 241
311 309 305 297 289 285 280 274 266 258 248 242 236 230 226 221 215 209 204 196 189 184 179 174 172 170 169 172 177 179 176 172 171 173 175 178 180 180 182 185 186 188 193 197 202 209 213 212 212 212 210 208 207 204 202 198 195 195 198 199 199 201 203 207 211 213 216 221 225 228 233 235 235 235 235 236 238 240 240 243 247 248 247 248 249
310 308 304 298 291 286 281 272 264 255 246 240 234 227 222 218 211 205 200 194 188 183 180 175 171 166 165 169 176 180 178 174 173 174 174 174 176 175 176 181 185 189 194 197 200 202 202 200 200 198 195 194 195 194 194 195 195 196 198 198 201 206 209 212 216 219 223 227 230 231 234 235 234 234 234 236 239 242 244 247 250 250 250 252 253
306 303 300 296 290 286 281 272 264 255 245 238 231 225 220 215 206 200 196 192 187 182 176 170 164 160 161 167 175 180 181 177 175 175 173 171 172 172 173 175 180 184 187 188 190 195 200 203 202 199 195 194 195 194 194 195 195 196 198 200 205 210 212 216 221 225 228 230 231 231 233 235 235 236 237 238 241 244 247 250 251 251 252 253 253
302 299 295 290 286 283 279 273 265 254 243 235 229 224 217 209 201 197 194 190 188 184 176 166 160 157 159 165 172 177 177 174 174 174 172 170 171 173 174 177 180 182 184 187 192 201 208 206 201 198 195 194 194 194 196 198 199 200 204 207 211 215 220 224 226 228 228 228 229 231 233 235 237 237 237 239 242 246 248 250 250 251 252 254 255
301 298 292 286 282 280 276 271 263 251 239 232 225 219 212 203 196 193 189 186 186 182 174 166 162 158 157 161 168 173 173 173 174 176 175 176 180 182 184 188 193 196 199 201 204 206 204 197 192 191 190 188 190 193 196 200 206 209 213 217 220 224 228 230 231 231 231 230 231 233 235 237 239 240 240 242 244 246 247 247 249 251 253 255 257
300 296 289 283 280 278 273 267 257 244 232 222 215 209 205 200 193 188 185 184 183 179 174 171 168 165 162 164 167 172 174 175 177 180 182 184 187 191 196 202 205 203 203 202 202 202 200 196 195 197 195 194 197 200 203 207 210 212 216 221 224 228 230 230 229 229 229 229 231 233 235 238 240 242 243 243 244 246 247 249 251 253 255 257 259
301 295 288 282 279 277 271 261 248 235 223 213 207 202 198 195 190 186 185 184 181 177 174 172 170 169 169 168 169 171 174 176 180 183 186 189 194 200 207 207 201 196 194 194 194 194 192 191 192 194 194 197 200 202 205 209 211 213 216 219 221 224 227 227 228 230 232 234 237 237 238 240 241 241 243 245 246 248 251 252 254 255 257 259 261
300 294 286 282 280 275 268 255 240 227 217 210 204 198 193 190 187 185 184 183 180 176 174 172 171 170 170 169 170 172 175 180 185 189 193 199 205 207 206 199 191 187 186 185 186 187 187 188 189 190 191 193 196 199 204 209 211 216 221 224 228 233 235 237 239 241 240 239 239 238 238 240 242 243 246 248 249 250 252 253 255 257 258 260 262
300 293 288 285 279 271 261 248 233 220 212 205 200 195 190 186 183 182 182 180 177 174 173 173 173 173 172 172 174 176 180 186 193 199 204 208 206 201 195 190 185 184 184 183 184 186 187 188 190 190 191 194 197 202 208 214 218 225 232 236 239 241 241 239 240 240 238 237 238 239 240 243 244 245 247 249 250 252 254 255 257 259 261 262 264
298 295 290 284 276 266 255 243 229 216 207 199 195 190 185 183 182 182 181 178 174 173 174 176 175 175 175 175 176 179 184 191 198 203 205 203 196 191 189 186 184 183 183 183 184 186 187 189 191 193 195 200 205 211 218 225 228 231 234 234 235 236 237 237 238 239 239 241 243 244 246 248 249 249 251 252 253 255 256 257 259 261 262 263 264
299 296 289 281 273 263 251 239 226 213 203 196 192 186 180 179 182 183 181 177 173 172 173 175 176 177 178 177 177 180 186 193 200 201 197 193 189 187 187 185 183 183 183 184 185 188 189 193 197 201 206 212 218 222 225 227 228 229 230 232 234 237 240 242 244 245 247 248 249 250 252 253 253 254 254 255 255 256 257 258 260 261 261 261 263
307 302 294 284 273 259 244 231 218 206 196 190 186 180 173 173 176 178 177 173 170 168 169 171 173 175 175 175 178 183 188 191 191 187 185 184 185 186 186 186 186 187 188 188 190 193 198 203 211 216 220 223 225 227 227 229 231 232 235 238 241 244 246 248 250 251 252 253 254 255 255 255 256 257 258 258 258 258 259 260 260 261 262 262 261